Rome, NY

6:01 PM EDT on September 21, 2017 (GMT -0400)
Griffiss

Weather History for KRME - July, 2012

Change the Weather History Date:

Friday, July 13, 2012

  Actual Average Record
Temperature  
Mean Temperature 76 °F -  
Max Temperature 91 °F 81 °F 93 °F (1987)
Min Temperature 61 °F 58 °F 48 °F (1980)
Cooling Degree Days 11    
Growing Degree Days 26 (Base 50)    
Moisture  
Dew Point 59 °F    
Average Humidity 57    
Maximum Humidity 87    
Minimum Humidity 28    
Precipitation  
Precipitation 0.00 in - - ()
Sea Level Pressure  
Sea Level Pressure 30.15 in    
Wind  
Wind Speed 3 mph (East)    
Max Wind Speed 7 mph    
Max Gust Speed -    
Visibility 10 miles    
Events      
Averages and records for this station are not official NWS values.
T = Trace of Precipitation, MM = Missing Value Source: NWS Daily Summary

Daily Weather History Graph

Daily Weather History Graph

Search for Another Location

Airport or City:

Trip Planner

Search our weather history database for the weather conditions in past years. The results will help you decide how hot, cold, wet, or windy it might be!

Date:

Astronomy

Jul. 13, 2012 Rise Set
Actual Time 5:34 AM EDT 8:40 PM EDT
Civil Twilight 4:59 AM EDT 9:14 PM EDT
Nautical Twilight 4:15 AM EDT 9:58 PM EDT
Astronomical Twilight 3:22 AM EDT 10:51 PM EDT
Moon 1:12 AM EDT (7/13) 4:06 PM EDT (7/13)
Length of Visible Light 16h 15m
Length of Day
15h 06m
Waning Crescent, 26% of the Moon is Illuminated
Jul 13
Waning Crescent
Jul 19
New
Jul 26
First Quarter
Aug 1
Full
Aug 9
Last Quarter

Hourly Weather History & Observations

Time (EDT) Temp. Heat Index Dew Point Humidity Pressure Visibility Wind Dir Wind Speed Gust Speed Precip Events Conditions
12:53 AM 68.0 °F - 59.0 °F 73% 30.14 in 10.0 mi ESE 5.8 mph - N/A   Mostly Cloudy
1:53 AM 66.9 °F - 59.0 °F 76% 30.15 in 10.0 mi Calm Calm - N/A   Mostly Cloudy
2:53 AM 64.0 °F - 59.0 °F 84% 30.15 in 10.0 mi SE 3.5 mph - N/A   Clear
3:53 AM 63.0 °F - 57.9 °F 84% 30.15 in 10.0 mi Calm Calm - N/A   Clear
4:53 AM 63.0 °F - 57.9 °F 84% 30.16 in 10.0 mi East 3.5 mph - N/A   Clear
5:53 AM 61.0 °F - 57.0 °F 87% 30.17 in 9.0 mi Calm Calm - N/A   Clear
6:53 AM 64.0 °F - 57.9 °F 80% 30.19 in 10.0 mi Calm Calm - N/A   Clear
7:53 AM 69.1 °F - 59.0 °F 70% 30.19 in 10.0 mi SE 4.6 mph - N/A   Partly Cloudy
8:53 AM 73.9 °F - 59.0 °F 59% 30.19 in 10.0 mi SE 5.8 mph - N/A   Clear
9:53 AM 78.1 °F - 61.0 °F 56% 30.19 in 10.0 mi SSE 4.6 mph - N/A   Clear
10:53 AM 82.0 °F 82.7 °F 61.0 °F 49% 30.19 in 10.0 mi Variable 3.5 mph - N/A   Clear
11:53 AM 86.0 °F 84.7 °F 55.9 °F 36% 30.18 in 10.0 mi SE 5.8 mph - N/A   Clear
12:53 PM 88.0 °F 85.9 °F 54.0 °F 31% 30.17 in 10.0 mi Calm Calm - N/A   Clear
1:53 PM 89.1 °F 86.9 °F 54.0 °F 30% 30.15 in 10.0 mi West 5.8 mph - N/A   Clear
2:53 PM 91.0 °F 88.7 °F 54.0 °F 28% 30.14 in 10.0 mi WNW 6.9 mph - N/A   Clear
3:53 PM 90.0 °F 87.5 °F 53.1 °F 28% 30.13 in 10.0 mi WNW 6.9 mph - N/A   Clear
4:53 PM 90.0 °F 87.5 °F 53.1 °F 28% 30.12 in 10.0 mi WSW 5.8 mph - N/A   Clear
5:53 PM 90.0 °F 87.7 °F 54.0 °F 29% 30.10 in 10.0 mi NW 5.8 mph - N/A   Clear
6:53 PM 88.0 °F 87.1 °F 59.0 °F 37% 30.10 in 10.0 mi NNE 3.5 mph - N/A   Clear
7:53 PM 84.0 °F 85.8 °F 64.9 °F 53% 30.10 in 10.0 mi NE 3.5 mph - N/A   Scattered Clouds
8:53 PM 80.1 °F 81.7 °F 64.0 °F 58% 30.12 in 10.0 mi Calm Calm - N/A   Clear
9:53 PM 78.1 °F - 64.0 °F 62% 30.13 in 10.0 mi NNW 3.5 mph - N/A   Clear
10:53 PM 73.9 °F - 64.9 °F 73% 30.14 in 10.0 mi Calm Calm - N/A   Clear
11:53 PM 72.0 °F - 64.0 °F 76% 30.14 in 10.0 mi Calm Calm - N/A   Clear